Starlink 31758

operational
NORAD ID: 59621 Int'l Des: 2024-080 Owner: SPXS Country: US Constellation: starlink
LEOCIRCULAR

About Starlink 31758

Description loading...

Live Position

Loading 3D Globe...

Upcoming Passes

Altitude History

Altitude vs Time

uPlot chart will show altitude changes over time

Two-Line Element Set

1 59621U 24080W 25350.75807499 .00000460 00000-0 26233-4 0 9991
2 59621 43.0023 142.4280 0001467 260.3677 99.7009 15.27586414 91891
Epoch: Dec 16, 2025 • Age: 11 hours

Current Status

Altitude 495.4 km
Velocity 7.62 km/s
Sub-Earth Point -43.15°S, 109.26°W
Launch Date Apr 28, 2024
Age 1.6 years
Type internet

Technical Details

Classification Payload
Mass 730.00 kg
Dry Mass 700.00 kg
Total Mass 730.00 kg
Length 0.30 m
Diameter 4.10 m
Span 29.00 m
Shape Box + pan
Manufacturer SPXS
Bus Type Starlink V2M
Phase Status In Orbit
Owner/State SPXS/US

Large Constellations

Loading constellations...